Aérodrome :
LOGIN :

S'inscrire | Disclaimer

   EN    FR    IT 

 










Légende :    VFR   VFR Marginal   IFR   IFR Intensif   IFR Très Intensif
Visi : 
Plafond : 
>= 8 km
>= 3000ft
5 à 8 km
1000 à 3000 ft
1500m à 5 km
500 à 1000 ft
800 à 1500m
200 à 500 ft
< 800m
< 200 ft
Symboles :   Orages  Brouillard  Fortes neiges  Fortes précipitations  Vent > 20 kt
SIGMETs :   Divers  Orages  Givrage  Turbulence  Onde Orograph.  Cendres Volcan.







- Altitude de l'aérodrome : 1411 ft
- Code IATA : ZHI


LSZG - Grenchen

DERNIER METAR :
  • 261850Z 34002KT CAVOK 15/12 Q1015 NOSIG

METARs EXPIRÉS :
  • 261820Z 33002KT 9999 BKN050 18/12 Q1015 NOSIG
  • 261750Z 00000KT CAVOK 20/09 Q1015 NOSIG
  • 261720Z 05001KT CAVOK 20/10 Q1015 NOSIG
  • 261650Z 12001KT CAVOK 20/09 Q1015 NOSIG
  • 261620Z 16001KT 9999 FEW050 BKN100 20/10 Q1015 NOSIG

TAF TAF LSZG
Valide du 26 à 15h jusqu'au 27 à 00h UTC


261425Z 2615/2624 08003KT 9999 FEW050
ATIS : +41 32 396 96 33
Pas de NOTAMs connus pour ce terrain.



MET'MAP, la Météo Aéronautique d'un coup d'oeil ! - Copyright ORBIFLY Décembre 2007 - Disclaimer

ORBIFLY MET'MAP TEAM :

Programmation & Développement : Alexandra Zaïnal
Conception & Développement : Baudouin d'Aumeries
Co-Programmation & Développement : Marc-Olivier Méhu
Soutien technique & logistique : Manuel Goepfert

Contact : metmap@orbifly.com




SOURCES & CREDITS :

   NOAA